TimeEDT,TemperatureF,Dew PointF,Humidity,Sea Level PressureIn,VisibilityMPH,Wind Direction,Wind SpeedMPH,Gust SpeedMPH,PrecipitationIn,Events,Conditions,WindDirDegrees,DateUTC
12:53 AM,75.9,73.9,94,29.87,10.0,Calm,Calm,-,N/A,,Clear,0,2013-10-23 04:53:00
1:53 AM,75.9,73.9,94,29.86,10.0,Calm,Calm,-,N/A,,Clear,0,2013-10-23 05:53:00
2:53 AM,75.0,73.9,96,29.85,9.0,Calm,Calm,-,N/A,,Clear,0,2013-10-23 06:53:00
3:53 AM,75.9,73.9,94,29.84,10.0,Calm,Calm,-,N/A,,Clear,0,2013-10-23 07:53:00
4:53 AM,75.0,73.0,94,29.83,10.0,WSW,3.5,-,N/A,,Clear,250,2013-10-23 08:53:00
5:53 AM,75.9,73.0,91,29.85,10.0,Calm,Calm,-,N/A,,Clear,0,2013-10-23 09:53:00
6:53 AM,77.0,73.0,88,29.87,10.0,WNW,4.6,-,N/A,,Overcast,300,2013-10-23 10:53:00
7:53 AM,77.0,73.0,88,29.87,10.0,Calm,Calm,-,N/A,,Mostly Cloudy,0,2013-10-23 11:53:00
8:53 AM,80.1,73.0,79,29.88,10.0,WNW,5.8,-,N/A,,Partly Cloudy,290,2013-10-23 12:53:00
9:53 AM,80.1,73.0,79,29.89,10.0,NNE,8.1,-,N/A,,Mostly Cloudy,20,2013-10-23 13:53:00
10:10 AM,78.8,73.4,83,29.90,1.5,NNW,9.2,-,0.01,Rain,Rain,330,2013-10-23 14:10:00
10:20 AM,75.2,73.4,94,29.90,0.8,North,9.2,23.0,0.15,Rain,Heavy Rain,350,2013-10-23 14:20:00
10:25 AM,75.2,73.4,94,29.90,5.0,North,10.4,19.6,0.16,Rain,Light Rain,360,2013-10-23 14:25:00
10:38 AM,75.2,73.4,94,29.90,5.0,NNE,8.1,-,0.16,,Overcast,30,2013-10-23 14:38:00
10:53 AM,75.9,73.9,94,29.91,10.0,North,10.4,-,0.16,,Scattered Clouds,360,2013-10-23 14:53:00
11:53 AM,80.1,72.0,76,29.91,10.0,NNE,9.2,-,N/A,,Scattered Clouds,20,2013-10-23 15:53:00
12:53 PM,81.0,69.1,67,29.90,10.0,North,15.0,-,N/A,,Partly Cloudy,360,2013-10-23 16:53:00
1:53 PM,82.0,68.0,62,29.88,10.0,North,8.1,16.1,N/A,,Scattered Clouds,10,2013-10-23 17:53:00
2:53 PM,81.0,64.9,58,29.88,10.0,North,11.5,19.6,N/A,,Overcast,10,2013-10-23 18:53:00
3:53 PM,81.0,64.0,56,29.88,10.0,North,11.5,-,N/A,,Overcast,350,2013-10-23 19:53:00
4:53 PM,81.0,64.0,56,29.89,10.0,North,10.4,-,N/A,,Partly Cloudy,360,2013-10-23 20:53:00
5:53 PM,78.1,59.0,52,29.90,10.0,North,9.2,17.3,N/A,,Overcast,360,2013-10-23 21:53:00
6:53 PM,77.0,63.0,62,29.92,10.0,North,9.2,-,N/A,,Overcast,350,2013-10-23 22:53:00
7:53 PM,77.0,61.0,58,29.94,10.0,North,3.5,-,N/A,,Mostly Cloudy,360,2013-10-23 23:53:00
8:53 PM,75.0,61.0,62,29.95,10.0,NNW,10.4,-,N/A,,Clear,340,2013-10-24 00:53:00
9:53 PM,73.0,54.0,51,29.97,10.0,North,6.9,-,N/A,,Clear,350,2013-10-24 01:53:00
10:53 PM,72.0,53.1,51,29.99,10.0,North,6.9,-,N/A,,Clear,360,2013-10-24 02:53:00
11:53 PM,71.1,53.1,53,30.00,10.0,North,10.4,-,N/A,,Scattered Clouds,10,2013-10-24 03:53:00